North River — WYR2549 — position and weather

sailwx.info

Track history (hours):
 
Tides and Currents Weather Stations Pressure Air Temp Water Temp Dewpoint Dewpoint Depression Visibility Wind Speed Wind Dir Waves Ship Positions

North River

Owner: CITY OF NEW YORK, Brooklyn, NY. More information available from US FCC via Universal Licensing System and Coast Guard Vessel Documentation Center.

Last reported at 2016-May-02 19:22 UTC. Time now 2016-May-03 01:04 UTC.
Position N 40°47' W 073°56'.

Length 78 m.

Type: Tanker. MMSI: 367074110.

Date/timePositionNaut miles runAvg speedWind from/ knotsBaromVisibWave heightAir tempDewpointWater temp
2016-May-02 19:22N 40°47' W 073°56'1012.6
2016-May-02 18:33N 40°38' W 074°03'7 6.1
2016-May-02 17:29N 40°33' W 073°56'5 5.8
2016-May-02 16:33N 40°35' W 073°50'0 0.0
2016-May-02 15:33N 40°35' W 073°50'0 0.0
2016-May-02 14:33N 40°35' W 073°50'9 7.2
2016-May-02 13:22N 40°34' W 074°01'1113.3
2016-May-02 12:33N 40°45' W 073°58'2 0.1
2016-May-01 15:33N 40°45' W 074°01'2 0.6
2016-May-01 12:33N 40°43' W 074°01'2 0.2
2016-Apr-30 22:33N 40°43' W 073°58'8 8.2
2016-Apr-30 21:33N 40°38' W 074°08'0 0.0
2016-Apr-30 20:33N 40°38' W 074°08'0 0.0
2016-Apr-30 19:33N 40°38' W 074°08'0 0.0
2016-Apr-30 18:33N 40°38' W 074°08'0 0.0
2016-Apr-30 17:33N 40°38' W 074°08'0 0.0
2016-Apr-30 16:32N 40°38' W 074°08'3 2.9
2016-Apr-30 15:33N 40°39' W 074°04'1 1.4
2016-Apr-30 14:33N 40°39' W 074°02'0 0.0
2016-Apr-30 13:33N 40°39' W 074°02'9 9.3
2016-Apr-30 12:33N 40°47' W 073°56'2 0.1
2016-Apr-29 16:33N 40°45' W 073°57'8 7.6
2016-Apr-29 15:33N 40°39' W 074°02'0 0.0
2016-Apr-29 14:33N 40°39' W 074°02'0 0.0
2016-Apr-29 13:33N 40°39' W 074°02'7 7.1
2016-Apr-29 12:33N 40°45' W 073°58'2 0.2
2016-Apr-28 21:28N 40°47' W 073°56'910.3
2016-Apr-28 20:33N 40°39' W 074°02'7 1.7
2016-Apr-28 16:28N 40°37' W 073°53'3 1.6
2016-Apr-28 14:22N 40°35' W 073°50'11 6.0
2016-Apr-28 12:33N 40°40' W 074°03'9 0.5
2016-Apr-27 17:33N 40°47' W 073°56'3 2.8
2016-Apr-27 16:33N 40°47' W 073°60'5 1.7
2016-Apr-27 13:33N 40°42' W 074°01'  
2016-Apr-23 20:34N 40°42' W 074°00'6 6.4
2016-Apr-23 19:33N 40°38' W 074°08'0 0.0
2016-Apr-23 18:33N 40°38' W 074°08'0 0.0
2016-Apr-23 17:33N 40°38' W 074°08'0 0.0
2016-Apr-23 16:33N 40°38' W 074°08'3 2.9
2016-Apr-23 15:33N 40°39' W 074°04'1 1.4
2016-Apr-23 14:33N 40°39' W 074°02'0 0.0
2016-Apr-23 13:33N 40°39' W 074°02'6 6.3
2016-Apr-23 12:33N 40°44' W 073°58'0 0.0
2016-Apr-22 19:33N 40°44' W 073°58'  
Track history (hours):
 
Tides and Currents Weather Stations Pressure Air Temp Water Temp Dewpoint Dewpoint Depression Visibility Wind Speed Wind Dir Waves Ship Positions

North River

Owner: CITY OF NEW YORK, Brooklyn, NY. More information available from US FCC via Universal Licensing System and Coast Guard Vessel Documentation Center.

Last reported at 2016-May-02 19:22 UTC. Time now 2016-May-03 01:04 UTC.
Position N 40°47' W 073°56'.

Length 78 m.

Type: Tanker. MMSI: 367074110.

Date/timePositionNaut miles runAvg speedWind from/ knotsBaromVisibWave heightAir tempDewpointWater temp
2016-May-02 19:22N 40°47' W 073°56'1012.6
2016-May-02 18:33N 40°38' W 074°03'7 6.1
2016-May-02 17:29N 40°33' W 073°56'5 5.8
2016-May-02 16:33N 40°35' W 073°50'0 0.0
2016-May-02 15:33N 40°35' W 073°50'0 0.0
2016-May-02 14:33N 40°35' W 073°50'9 7.2
2016-May-02 13:22N 40°34' W 074°01'1113.3
2016-May-02 12:33N 40°45' W 073°58'2 0.1
2016-May-01 15:33N 40°45' W 074°01'2 0.6
2016-May-01 12:33N 40°43' W 074°01'2 0.2
2016-Apr-30 22:33N 40°43' W 073°58'8 8.2
2016-Apr-30 21:33N 40°38' W 074°08'0 0.0
2016-Apr-30 20:33N 40°38' W 074°08'0 0.0
2016-Apr-30 19:33N 40°38' W 074°08'0 0.0
2016-Apr-30 18:33N 40°38' W 074°08'0 0.0
2016-Apr-30 17:33N 40°38' W 074°08'0 0.0
2016-Apr-30 16:32N 40°38' W 074°08'3 2.9
2016-Apr-30 15:33N 40°39' W 074°04'1 1.4
2016-Apr-30 14:33N 40°39' W 074°02'0 0.0
2016-Apr-30 13:33N 40°39' W 074°02'9 9.3
2016-Apr-30 12:33N 40°47' W 073°56'2 0.1
2016-Apr-29 16:33N 40°45' W 073°57'8 7.6
2016-Apr-29 15:33N 40°39' W 074°02'0 0.0
2016-Apr-29 14:33N 40°39' W 074°02'0 0.0
2016-Apr-29 13:33N 40°39' W 074°02'7 7.1
2016-Apr-29 12:33N 40°45' W 073°58'2 0.2
2016-Apr-28 21:28N 40°47' W 073°56'910.3
2016-Apr-28 20:33N 40°39' W 074°02'7 1.7
2016-Apr-28 16:28N 40°37' W 073°53'3 1.6
2016-Apr-28 14:22N 40°35' W 073°50'11 6.0
2016-Apr-28 12:33N 40°40' W 074°03'9 0.5
2016-Apr-27 17:33N 40°47' W 073°56'3 2.8
2016-Apr-27 16:33N 40°47' W 073°60'5 1.7
2016-Apr-27 13:33N 40°42' W 074°01'  
2016-Apr-23 20:34N 40°42' W 074°00'6 6.4
2016-Apr-23 19:33N 40°38' W 074°08'0 0.0
2016-Apr-23 18:33N 40°38' W 074°08'0 0.0
2016-Apr-23 17:33N 40°38' W 074°08'0 0.0
2016-Apr-23 16:33N 40°38' W 074°08'3 2.9
2016-Apr-23 15:33N 40°39' W 074°04'1 1.4
2016-Apr-23 14:33N 40°39' W 074°02'0 0.0
2016-Apr-23 13:33N 40°39' W 074°02'6 6.3
2016-Apr-23 12:33N 40°44' W 073°58'0 0.0
2016-Apr-22 19:33N 40°44' W 073°58'  

Dump ship's entire track history